Printer-friendly version

IAU Minor Planet Center

Minor Planet Center

MPEC 2005-V07 : 2005 UV64

The following Minor Planet Electronic Circular may be linked-to from your own Web pages, but must not otherwise be redistributed electronically.


Read MPEC 2005-V06 Read MPEC 2005-V08


M.P.E.C. 2005-V07                                Issued 2005 Nov. 1, 18:38 UT

     The Minor Planet Electronic Circulars contain information on unusual
         minor planets and routine data on comets.  They are published
   on behalf of Commission 20 of the International Astronomical Union by the
          Minor Planet Center, Smithsonian Astrophysical Observatory,
                          Cambridge, MA 02138, U.S.A.

                  Supported in part by the Brinson Foundation
                  Supported in part by the TABASGO Foundation
             Prepared using the Tamkin Foundation Computer Network

                              MPC@CFA.HARVARD.EDU
          URL http://cfa-www.harvard.edu/iau/mpc.html  ISSN 1523-6714

                                   2005 UV64

Observations:
     K05U64V*tC2005 10 31.29580 03 10 21.64 +12 02 02.0          21.3 V EV007691
     K05U64V tC2005 10 31.31317 03 10 17.37 +11 58 37.5          20.3 V EV007691
     K05U64V tC2005 10 31.33055 03 10 13.06 +11 55 11.1          20.6 V EV007691
     K05U64V tC2005 10 31.43187 03 09 48.60 +11 35 00.2          20.1 V EV007291
     K05U64V tC2005 10 31.43598 03 09 47.58 +11 34 09.0          20.3 V EV007291
     K05U64V tC2005 10 31.44047 03 09 46.62 +11 33 14.9          20.4 V EV007291
     K05U64V  C2005 11 01.11517 03 08 06.69 +09 13 49.0                 EV007J95
     K05U64V  C2005 11 01.11888 03 08 05.91 +09 13 02.0                 EV007J95
     K05U64V  C2005 11 01.12203 03 08 05.14 +09 12 22.4          19.8 R EV007J95
     K05U64V  C2005 11 01.36393 03 07 29.79 +08 22 18.0          19.7 R EV007854
     K05U64V  C2005 11 01.37367 03 07 27.08 +08 20 12.6          19.7 R EV007854
     K05U64V  C2005 11 01.38084 03 07 25.52 +08 18 39.2          19.7 R EV007854
     K05U64V tC2005 11 01.44217 03 07 10.40 +08 05 22.9          19.4 V EV007291
     K05U64V tC2005 11 01.44683 03 07 09.29 +08 04 21.7          20.2 V EV007291
     K05U64V tC2005 11 01.45138 03 07 08.20 +08 03 20.6          19.8 V EV007291

Observer details:
291 LPL/Spacewatch II.  Observer J. V. Scotti.  1.8-m f/2.7 reflector + CCD.
691 Steward Observatory, Kitt Peak.  Observers R. S. McMillan, L. Sheng.
    Measurer R. S. McMillan.  0.9-m f/3 reflector + CCD.
854 Sabino Canyon Observatory, Tucson.  Observer J. E. McGaha.  0.36-m f/10.0
    Schmidt-Cassegrain + CCD.
J95 Great Shefford.  Observer P. Birtwhistle.  0.40-m f/6.0 Schmidt-Cassegrain
    + CCD.

Orbital elements:
2005 UV64
Epoch 2005 Aug. 18.0 TT = JDT 2453600.5                 MPC
M 159.86348              (2000.0)            P               Q
n   1.05098398     Peri.  314.12721     -0.98455296     -0.16569392
a   0.9580878      Node   216.44446     +0.17508147     -0.92912948
e   0.1146630      Incl.    5.46519     +0.00139491     -0.33055094
P   0.94           H   26.9           G   0.15           U   7
Residuals in seconds of arc
051031 691  0.3+  0.1-    051031 291  0.3+  0.4+    051101 854 (3.3-  0.2-)
051031 691  0.2+  0.3-    051101 J95  0.1-  0.3-    051101 854  1.0+  0.7-
051031 691  0.1-  1.4-    051101 J95  0.4+  0.1-    051101 291  0.5+  0.8+
051031 291  0.6+  1.4+    051101 J95  0.8-  0.5+    051101 291  0.4+  0.7+
051031 291  0.6-  0.0     051101 854  0.5-  0.9-    051101 291  0.1+  0.8-

Ephemeris:
2005 UV64                a,e,i = 0.96, 0.11, 5                   q = 0.8482
Date    TT    R. A. (2000) Decl.     Delta      r     Elong.  Phase     V
2005 10 27    03 19.15   +23 43.4    0.0393   1.031   159.4    19.9    20.9
2005 10 29    03 15.45   +18 52.0    0.0359   1.028   164.1    15.4    20.6
2005 10 31    03 11.02   +13 01.1    0.0328   1.025   167.8    11.8    20.3
2005 11 02    03 05.83   +06 04.7    0.0303   1.022   167.5    12.2    20.1
2005 11 04    02 59.81   -01 56.7    0.0283   1.019   161.8    17.7    20.1
2005 11 06    02 52.94   -10 51.7    0.0271   1.015   153.1    26.2    20.3
2005 11 08    02 45.15   -20 15.8    0.0266   1.012   143.2    35.9    20.5
2005 11 10    02 36.38   -29 36.4    0.0269   1.009   132.9    45.9    20.8
2005 11 12    02 26.50   -38 22.4    0.0279   1.005   123.1    55.6    21.2
2005 11 14    02 15.34   -46 13.0    0.0295   1.002   114.1    64.3    21.5
2005 11 16    02 02.67   -52 59.7    0.0316   0.998   106.1    72.1    21.9

Kyle E. Smalley              (C) Copyright 2005 MPC           M.P.E.C. 2005-V07

Read MPEC 2005-V06 Read MPEC 2005-V08


Our Web policy. Index to the CBAT/MPC/ICQ pages.


Valid HTML 4.01!